Location: Coed Ely
(51.5661°N, 3.4150°W)
Time: 13:10:21
(UTC+00:00)

Daily predictions for brighter satellites

Satellite Brightness Start Highest point End
(mag) Time Altitude Azimuth Time Altitude Azimuth Time Altitude Azimuth
Envisat 4.0 17:22:45 10° S 17:27:43 54° W 17:32:44 10° NNW
Cosmos 2344 4.3 17:20:13 10° NW 17:28:52 67° NE 17:40:46 10° ESE
H-2A R/B 3.1 17:26:13 10° ESE 17:30:09 23° ENE 17:34:13 10° N
H-2A R/B 2.4 17:26:06 10° NNE 17:30:20 45° E 17:34:27 10° S
USA 229 DEB 3.9 17:23:37 10° NW 17:30:49 74° NE 17:38:28 10° SE
USA 229 3.9 17:23:43 10° NW 17:30:56 73° NE 17:38:34 10° SE
Cosmos 1939 Rocket 3.3 17:28:10 10° SE 17:32:00 41° ENE 17:35:48 10° N
CZ-3B R/B 1.3 17:30:38 10° WNW 17:32:47 83° NNE 17:37:42 10° ESE
Cosmos 44 3.7 17:28:57 10° SSW 17:33:37 50° ESE 17:38:37 10° NE
Cosmos 1602 Rocket 4.5 17:30:57 10° SSE 17:34:40 28° E 17:38:27 10° NNE
SeaSat 1 2.7 17:29:46 10° NNE 17:34:43 76° WNW 17:39:38 10° SW
Cosmos 158 Rocket 4.4 17:30:15 10° NNW 17:35:37 73° WSW 17:41:00 10° SSE
Cosmos 2112 Rocket 4.0 17:30:47 10° NNW 17:36:04 74° ENE 17:41:15 10° SSE
SJ 16-02 1.3 17:32:48 10° SSW 17:37:11 77° ESE 17:41:36 10° NNE
Feng Yun 1-1 Rocket 4.5 17:32:15 10° SE 17:37:31 49° ENE 17:42:58 10° N
FengYun 1-2 T 4.3 17:34:40 10° SSE 17:40:16 83° ENE 17:45:57 10° NNW
Cosmos 990 Rocket 4.4 17:35:52 10° S 17:40:46 44° ESE 17:45:40 10° NE
Aureole 3 Rocket 3.5 17:38:47 10° NNE 17:41:30 25° ENE 17:44:38 10° SE
YAOGAN 1 3.7 17:38:08 10° ESE 17:41:32 23° ENE 17:44:57 10° N
Cosmos 1844 Rocket 2.7 17:36:31 10° SSW 17:42:12 87° ESE 17:47:53 10° NNE
Cosmos 1892 Rocket 3.8 17:38:06 10° SSW 17:42:25 73° W 17:46:47 10° N
COSMOS 2406 3.4 17:36:50 10° NNW 17:42:33 55° NE 17:48:12 10° SE
Cosmos 2082 Rocket 2.9 17:37:34 10° NNW 17:42:44 33° NE 17:47:53 10° ESE
H-2A R/B 3.0 17:39:12 10° S 17:43:21 66° WSW 17:47:43 10° NNW
Cosmos 1818 3.7 17:38:07 10° SW 17:43:35 81° NW 17:49:05 10° NE
Cosmos 1844 3.7 17:40:34 10° SSW 17:46:15 79° ESE 17:52:02 10° NNE
NOSS 3-1 (A) 4.0 17:39:12 10° NW 17:46:27 78° NE 17:54:58 10° SE
X-37B 2.6 17:44:58 10° WSW 17:47:37 24° S 17:50:17 10° SE
Cosmos 1703 3.7 17:44:57 10° SSE 17:48:34 39° E 17:52:12 10° NNE
Cosmos 1812 Rocket 3.7 17:46:23 10° N 17:50:41 50° ENE 17:54:55 10° SSE
ISS -3.7 17:47:24 10° W 17:50:47 87° S 17:53:50 12° E
IRS-1C Rocket 4.4 17:46:02 10° SE 17:51:00 45° ENE 17:56:01 10° N
Meteor 2-1 Rocket 4.3 17:46:54 10° NNW 17:52:28 84° W 17:57:59 10° S
ATLAS 2AS CENTAUR R/B 3.9 17:46:39 10° W 17:53:52 37° NNW 18:00:47 10° NE
Cosmos 2227 Rocket 4.4 17:53:21 10° NW 17:55:42 12° NNW 17:58:04 10° N
ATLAS 5 CENTAUR R/B 3.2 17:52:31 10° WNW 17:56:16 26° NNW 18:00:32 10° NE
Okean O Rocket 2.0 17:52:20 10° S 17:56:45 70° WSW 18:01:10 10° NNW
Iridium 4 Rocket 3.9 17:53:51 10° N 17:59:01 42° ENE 18:03:45 10° SSE
CZ-4 R/B 1.9 17:57:23 10° SE 18:01:01 34° ENE 18:04:37 10° N
ERS-2 3.5 17:58:38 11° NE 18:01:06 20° E 18:03:50 10° SE
SKYMED 2 4.0 17:57:04 10° NNE 18:01:11 40° E 18:05:17 10° SSE
CSL-04 Rocket 4.4 18:00:59 10° ESE 18:05:42 31° ENE 18:10:30 10° N
CZ-4C R/B 3.7 18:01:06 10° WNW 18:06:14 29° N 18:11:46 12° NE
Meteor 2-13 Rocket 4.5 18:00:37 10° S 18:06:46 89° E 18:12:58 10° N
Okean-O 3.0 18:04:25 10° SE 18:08:33 40° ENE 18:12:42 10° N
Aureole 2 Rocket 4.5 18:08:31 10° WSW 18:11:00 22° NW 18:13:30 10° N
USA 234 3.6 18:05:52 13° ENE 18:11:36 58° N 18:18:00 10° W
Cosmos 1340 2.7 18:08:20 10° S 18:12:00 55° E 18:15:42 10° NNE
Cosmos 2278 Rocket 2.8 18:07:36 10° S 18:12:39 34° ESE 18:17:12 13° NE
Cosmos 1346 Rocket 3.8 18:09:24 10° SSE 18:12:39 25° E 18:15:11 14° NE
CZ-2C R/B 3.2 18:11:34 10° SSE 18:17:06 77° ENE 18:22:54 10° NNW
Cosmos 2297 Rocket 4.5 18:18:07 10° NNW 18:19:23 11° N 18:20:38 10° N
Cosmos 405 2.8 18:17:25 10° N 18:20:58 77° ENE 18:24:29 10° SSE
COSMOS 2455 3.8 18:15:38 10° WSW 18:21:21 43° NW 18:27:05 10° NNE
Cosmos 1455 3.9 18:17:55 10° NNW 18:21:28 36° W 18:25:01 10° SSW
NOSS 2-1 (E) 2.8 18:21:18 10° SW 18:24:36 77° SE 18:26:46 22° NE
TELKOM 3 3.7 18:25:50 10° W 18:27:56 41° SSW 18:28:34 31° SSE
Cosmos 1627 Rocket 4.5 18:22:00 10° S 18:28:10 69° E 18:34:28 10° NNE
Cosmos 1626 Rocket 3.9 18:24:18 10° SSW 18:28:41 70° WNW 18:33:10 10° N
Cosmos 1869 4.1 18:25:42 10° N 18:29:06 28° ENE 18:30:11 24° E
ARGOS 3.4 18:25:35 10° SE 18:30:42 47° ENE 18:35:51 10° N
PSLV R/B 4.4 18:28:29 10° NNE 18:32:31 41° E 18:36:30 10° S
Cosmos 1898 Rocket 3.5 18:30:18 10° SSW 18:35:34 84° WNW 18:40:49 10° NNE
CZ-4B R/B 1.3 18:32:55 10° NNE 18:36:15 81° WNW 18:39:28 10° SSW
Cosmos 372 Rocket 4.3 18:31:25 10° S 18:36:20 44° ESE 18:39:58 18° NE
Cosmos 2263 Rocket 4.3 18:32:52 10° WNW 18:36:45 19° NNW 18:40:39 10° NNE
Cosmos 1092 Rocket 4.0 18:30:53 10° S 18:37:04 87° W 18:43:15 10° N
CZ-2C R/B 3.6 18:33:46 15° NE 18:37:19 27° E 18:42:00 10° SSE
Cosmos 1328 3.8 18:35:20 10° SSW 18:39:19 81° W 18:43:19 10° N
Cosmos 494 Rocket 4.4 18:35:07 10° NNW 18:39:57 39° NE 18:42:29 24° ESE
CZ-2D R/B 4.0 18:37:42 10° S 18:41:28 56° W 18:45:16 10° NNW
MOS 1 Rocket 2.9 18:39:46 10° NNE 18:44:04 84° ESE 18:48:25 10° SSW
Cosmos 1048 Rocket 4.0 18:40:01 10° NNW 18:45:05 56° ENE 18:49:36 13° SE
Cosmos-2242 3.0 18:41:19 10° N 18:45:38 88° WSW 18:49:57 10° S
Meteor 2-15 4.4 18:43:09 10° NNW 18:49:21 88° W 18:55:31 10° S
COSMO-SKYMED 1 2.8 18:45:00 10° N 18:49:21 73° WNW 18:53:41 10° SSW
Meteor 1-11 4.1 18:46:46 10° S 18:52:26 78° E 18:58:04 10° NNE
USA 290 3.6 18:50:57 10° NW 18:53:58 40° WSW 18:56:58 10° S
Cosmos 1758 Rocket 3.6 18:50:55 10° S 18:55:24 87° W 18:59:57 10° N
Cosmos 1937 Rocket 3.7 18:52:49 10° SSW 18:58:08 76° WNW 19:03:18 11° NNE
Cosmos 2098 Rocket 4.3 18:52:06 10° S 18:59:34 90° WSW 19:06:39 10° N
SL-08 RB Rocket 3.6 18:59:18 20° SE 19:02:17 57° ENE 19:06:42 10° N
CSL-04 Debris 4.0 18:59:07 10° SSE 19:04:30 82° ENE 19:09:56 10° NNW
Cosmos 2221 3.6 19:01:01 10° N 19:03:42 29° NNE 19:03:42 29° NNE
H-2A R/B 4.2 19:02:27 10° N 19:06:06 26° WNW 19:09:39 10° WSW
Cosmos 389 Rocket 3.2 19:03:30 10° N 19:05:56 39° N 19:05:56 39° N
Cosmos 1833 Rocket 3.6 19:01:43 10° NW 19:07:07 48° WSW 19:12:29 10° S
Helios 1A Rocket 3.0 19:03:09 10° SSE 19:07:18 78° WSW 19:11:28 10° NNW
H-2A R/B 2.3 19:04:03 10° S 19:09:07 69° WSW 19:14:22 10° NNW
Cosmos 1689 Rocket 3.7 19:13:25 27° SSW 19:13:25 27° SSW 19:14:51 10° SSW
Cosmos 2298 Rocket 4.2 19:07:45 10° S 19:12:52 50° ESE 19:13:35 46° E
NOSS 2-1 (C) 4.1 19:10:45 10° WSW 19:13:54 39° NW 19:14:40 34° N
Cosmos 44 4.4 19:10:20 10° WSW 19:15:02 41° NW 19:17:57 22° NNE
Cosmos 2266 Rocket 4.0 19:09:19 10° SSE 19:15:17 50° E 19:21:10 10° NNE
SJ 16-02 3.9 19:13:16 10° W 19:16:20 18° NW 19:19:24 10° N
YAOGAN 1 3.4 19:13:09 10° S 19:17:22 50° W 19:21:36 10° NNW
NOSS 2-2 (C) 4.2 19:12:37 10° NW 19:17:39 72° NE 19:20:07 39° ESE
NOSS 2-1 (D) 4.2 19:16:47 10° WSW 19:19:54 35° NNW 19:20:27 33° N
HJ-1C 3.9 19:20:23 42° SSW 19:21:15 59° W 19:24:34 10° NNW
X-37B 3.3 19:21:58 10° SW 19:23:36 13° SSW 19:23:54 13° SSW
In-Cosmos 22 Rocket 4.1 19:19:11 10° S 19:24:53 65° E 19:29:35 15° NNE
Cosmos 1553 Rocket 4.5 19:19:42 10° NNW 19:26:02 63° W 19:32:15 10° S
Cosmos 2082 Rocket 2.7 19:21:33 10° NW 19:27:12 60° WSW 19:32:47 10° SSE
Cosmos 1825 Rocket 4.1 19:22:58 10° SSW 19:27:17 58° WNW 19:31:42 10° N
ISS -2.8 19:24:14 10° W 19:26:49 48° W 19:26:49 48° W
Cosmos 1269 Rocket 4.4 19:24:36 10° NNW 19:29:02 44° NNE 19:29:02 44° NNE
ERS-2 3.4 19:33:12 25° NNW 19:34:47 39° WNW 19:38:11 10° SW
CZ-4 R/B 3.5 19:32:40 10° SSW 19:36:06 27° W 19:39:30 10° NW
MetOp-A 4.0 19:37:46 67° ESE 19:38:20 73° ENE 19:43:41 10° NNW
Meteor 2-21 4.3 19:34:46 10° S 19:40:49 71° E 19:46:58 10° NNE
NOSS 2-2 (E) 4.4 19:35:35 10° NW 19:40:55 79° SW 19:43:31 40° SSE
ATLAS 5 CENTAUR R/B 3.5 19:38:38 10° NW 19:42:26 22° N 19:42:29 22° N
Cosmos 2227 Rocket 4.4 19:40:52 10° N 19:42:35 11° N 19:42:53 11° NNE
Cosmos 2315 Rocket 3.8 19:38:33 10° N 19:44:49 75° ENE 19:46:33 49° SSE
Cosmos 883 Rocket 4.3 19:39:23 10° N 19:45:39 88° E 19:50:12 19° S
CSL-04 Rocket 4.4 19:40:27 10° S 19:45:48 54° W 19:51:14 10° NNW
ATLAS 2AS CENTAUR R/B 3.7 19:39:48 10° NW 19:46:50 35° NNE 19:48:21 33° NE
Meteor 2-14 Rocket 4.2 19:42:46 10° S 19:48:49 78° E 19:54:57 10° NNE
Cosmos 1346 Rocket 4.4 19:45:19 10° SW 19:48:53 33° WNW 19:50:46 22° NNW
Ariane Rocket 3.6 19:51:36 44° N 19:51:36 44° N 19:55:09 10° NNW
IRS-1A Rocket 4.2 19:51:15 75° E 19:51:27 75° ENE 19:57:18 10° NNW
Cosmos 1953 Rocket 4.5 19:49:41 10° SSW 19:53:52 46° WNW 19:55:15 34° NNW
USA 234 3.3 19:53:12 56° NE 19:54:13 63° NNE 20:00:41 10° WNW
CZ-4C R/B 3.5 19:50:35 10° NW 19:56:33 37° NNE 19:56:57 36° NNE
Cosmos 2278 Rocket 2.9 19:51:02 10° SW 19:56:34 51° NW 19:59:05 30° N
Cosmos 1655 Rocket 4.1 19:52:18 10° SSW 19:58:30 72° WNW 20:04:46 10° N
Cosmos 44 Rocket 4.1 19:58:36 10° SW 20:02:05 47° SW 20:02:05 47° SW
USA 281 3.9 20:04:50 39° NNE 20:04:50 39° NNE 20:09:47 10° NNW
Cosmos 2297 Rocket 4.4 20:03:26 10° N 20:05:07 13° N 20:05:07 13° N
CZ-2C R/B 3.2 20:15:09 29° N 20:17:58 60° WNW 20:23:28 10° SSW
ATLAS 2AS CENTAUR R/B 4.1 21:31:34 10° NW 21:35:47 35° NNW 21:35:47 35° NNW
CZ-4C R/B 4.3 21:39:09 10° NW 21:42:09 30° NW 21:42:09 30° NW
